| time (UTC) | temp F | wind direction | speed MPH | gust MPH | rain 1hr in | rain 24hr in | rain mn in | humidity % | barometer mb |
| 20260507160703 | 51 | 272 | 0.0 | 2.0 | 0.00 | 0.28 | 0.28 | 93 | 999.0 |
| 20260507160203 | 51 | 272 | 2.0 | 2.0 | 0.00 | 0.28 | 0.28 | 93 | 999.3 |
| 20260507150703 | 50 | 85 | 0.0 | 1.0 | 0.02 | 0.28 | 0.28 | 93 | 999.3 |
| 20260507150203 | 50 | 84 | 1.0 | 2.0 | 0.02 | 0.28 | 0.28 | 93 | 999.0 |
| 20260507140704 | 53 | 114 | 0.0 | 0.0 | 0.04 | 0.26 | 0.26 | 91 | 1000.3 |
| 20260507140203 | 53 | 114 | 0.0 | 3.0 | 0.04 | 0.26 | 0.26 | 90 | 1000.3 |
| 20260507130704 | 54 | 265 | 3.0 | 3.0 | 0.00 | 0.22 | 0.22 | 86 | 1000.3 |
| 20260507130204 | 54 | 271 | 2.0 | 2.0 | 0.00 | 0.22 | 0.22 | 86 | 1000.0 |
| 20260507120703 | 53 | 269 | 2.0 | 2.0 | 0.00 | 0.22 | 0.22 | 87 | 1000.0 |
| 20260507120206 | 53 | 268 | 2.0 | 7.0 | 0.00 | 0.22 | 0.22 | 87 | 999.9 |
| 20260507110703 | 53 | 247 | 6.0 | 7.0 | 0.00 | 0.22 | 0.22 | 89 | 998.6 |
| 20260507100705 | 55 | 288 | 6.0 | 6.0 | 0.01 | 0.22 | 0.22 | 88 | 1000.0 |
| 20260507100204 | 55 | 272 | 2.0 | 8.0 | 0.01 | 0.22 | 0.22 | 88 | 1000.0 |
| 20260507090704 | 55 | 243 | 5.0 | 7.0 | 0.05 | 0.21 | 0.21 | 92 | 999.3 |
| 20260507090203 | 55 | 241 | 5.0 | 10.0 | 0.05 | 0.21 | 0.21 | 92 | 999.0 |
| 20260507080703 | 55 | 222 | 3.0 | 7.0 | 0.06 | 0.16 | 0.16 | 93 | 1000.0 |
| 20260507080203 | 54 | 248 | 5.0 | 8.0 | 0.07 | 0.16 | 0.16 | 93 | 999.7 |
| 20260507070703 | 55 | 254 | 6.0 | 6.0 | 0.06 | 0.10 | 0.10 | 91 | 1001.0 |
| 20260507070202 | 55 | 254 | 4.0 | 9.0 | 0.06 | 0.10 | 0.10 | 91 | 1001.3 |
| 20260507050703 | 56 | 255 | 5.0 | 7.0 | 0.02 | 0.02 | 0.02 | 87 | 1004.1 |
| 20260507050203 | 57 | 229 | 6.0 | 15.0 | 0.02 | 0.02 | 0.02 | 86 | 1004.4 |
| 20260507040703 | 58 | 228 | 5.0 | 8.0 | 0.00 | 0.00 | 0.00 | 81 | 1005.1 |
| 20260507040203 | 58 | 161 | 7.0 | 10.0 | 0.00 | 0.00 | 0.00 | 81 | 1005.4 |
| 20260507030703 | 58 | 172 | 3.0 | 5.0 | 0.00 | 0.00 | 0.00 | 83 | 1006.4 |
| 20260507030203 | 57 | 227 | 1.0 | 8.0 | 0.00 | 0.00 | 0.00 | 83 | 1006.4 |
| 20260507020703 | 59 | 198 | 7.0 | 8.0 | 0.00 | 0.00 | 0.00 | 81 | 1007.5 |
| 20260507020203 | 60 | 252 | 6.0 | 9.0 | 0.00 | 0.00 | 0.00 | 80 | 1007.5 |
| 20260507010703 | 60 | 268 | 5.0 | 8.0 | 0.00 | 0.00 | 0.00 | 78 | 1008.8 |
| 20260507010204 | 60 | 236 | 7.0 | 14.0 | 0.00 | 0.00 | 0.00 | 78 | 1008.8 |
| 20260507000703 | 63 | 178 | 7.0 | 8.0 | 0.00 | 0.00 | 0.00 | 71 | 1008.8 |
| 20260507000205 | 63 | 235 | 6.0 | 12.0 | 0.00 | 0.00 | 0.00 | 71 | 1008.8 |
| 20260506230704 | 64 | 241 | 5.0 | 7.0 | 0.00 | 0.00 | 0.00 | 67 | 1008.5 |
| 20260506230204 | 64 | 246 | 7.0 | 13.0 | 0.00 | 0.00 | 0.00 | 67 | 1008.4 |
| 20260506220702 | 66 | 244 | 7.0 | 18.0 | 0.00 | 0.00 | 0.00 | 63 | 1008.1 |
| 20260506220201 | 66 | 143 | 13.0 | 18.0 | 0.00 | 0.00 | 0.00 | 63 | 1008.1 |
| 20260506210702 | 67 | 222 | 9.0 | 14.0 | 0.00 | 0.00 | 0.00 | 60 | 1008.1 |
| 20260506210204 | 67 | 280 | 12.0 | 15.0 | 0.00 | 0.00 | 0.00 | 60 | 1008.1 |
| 20260506200703 | 68 | 268 | 12.0 | 15.0 | 0.00 | 0.00 | 0.00 | 59 | 1007.8 |
| 20260506200203 | 68 | 247 | 13.0 | 20.0 | 0.00 | 0.00 | 0.00 | 60 | 1007.5 |
| 20260506190702 | 68 | 253 | 7.0 | 9.0 | 0.00 | 0.00 | 0.00 | 63 | 1008.1 |
| 20260506190202 | 68 | 254 | 7.0 | 15.0 | 0.00 | 0.00 | 0.00 | 63 | 1008.1 |
| 20260506180703 | 67 | 227 | 7.0 | 9.0 | 0.00 | 0.00 | 0.00 | 67 | 1008.5 |
| 20260506180202 | 67 | 257 | 9.0 | 17.0 | 0.00 | 0.00 | 0.00 | 66 | 1008.7 |
| 20260506170703 | 68 | 249 | 10.0 | 17.0 | 0.00 | 0.00 | 0.00 | 66 | 1008.5 |
| 20260506170204 | 67 | 219 | 9.0 | 20.0 | 0.00 | 0.00 | 0.00 | 66 | 1008.1 |